| time (UTC) | temp F | wind direction | speed MPH | gust MPH | rain 1hr in | rain 24hr in | rain mn in | humidity % | barometer mb |
| 20260507130523 | 69 | 245 | 4.0 | 10.0 | 0.00 | 1.83 | 1.61 | 95 | 1011.6 |
| 20260507130035 | 69 | 174 | 3.0 | 10.0 | 0.00 | 1.83 | 1.61 | 95 | 1011.2 |
| 20260507125522 | 68 | 180 | 4.0 | 9.0 | 0.00 | 1.83 | 1.61 | 95 | 1011.1 |
| 20260507125022 | 68 | 192 | 4.0 | 12.0 | 0.00 | 1.83 | 1.61 | 95 | 1011.3 |
| 20260507124537 | 68 | 210 | 2.0 | 12.0 | 0.00 | 1.83 | 1.61 | 95 | 1011.2 |
| 20260507124024 | 68 | 171 | 3.0 | 12.0 | 0.00 | 1.83 | 1.61 | 95 | 1011.4 |
| 20260507123522 | 68 | 161 | 1.0 | 5.0 | 0.00 | 1.83 | 1.61 | 95 | 1011.5 |
| 20260507123036 | 68 | 203 | 2.0 | 6.0 | 0.00 | 1.83 | 1.61 | 95 | 1011.6 |
| 20260507122522 | 68 | 185 | 3.0 | 6.0 | 0.00 | 1.83 | 1.61 | 95 | 1011.7 |
| 20260507122022 | 68 | 213 | 2.0 | 6.0 | 0.00 | 1.83 | 1.61 | 95 | 1011.6 |
| 20260507121540 | 67 | 160 | 3.0 | 8.0 | 0.00 | 1.83 | 1.61 | 95 | 1011.7 |
| 20260507121022 | 67 | 202 | 3.0 | 8.0 | 0.00 | 1.83 | 1.61 | 95 | 1011.8 |
| 20260507120522 | 67 | 170 | 3.0 | 7.0 | 0.00 | 1.83 | 1.61 | 95 | 1011.9 |
| 20260507120039 | 67 | 214 | 1.0 | 5.0 | 0.00 | 1.83 | 1.61 | 95 | 1012.0 |
| 20260507115522 | 67 | 181 | 1.0 | 3.0 | 0.00 | 1.83 | 1.61 | 95 | 1012.1 |
| 20260507115022 | 67 | 0 | 1.0 | 2.0 | 0.00 | 1.83 | 1.61 | 95 | 1012.4 |
| 20260507114538 | 67 | 0 | 0.0 | 2.0 | 0.00 | 1.83 | 1.61 | 95 | 1012.4 |
| 20260507114021 | 67 | 165 | 0.0 | 2.0 | 0.00 | 1.83 | 1.61 | 95 | 1012.6 |
| 20260507113524 | 67 | 0 | 0.0 | 0.0 | 0.01 | 1.83 | 1.61 | 95 | 1012.4 |
| 20260507113038 | 67 | 0 | 0.0 | 1.0 | 0.01 | 1.83 | 1.61 | 95 | 1012.3 |
| 20260507112525 | 67 | 0 | 0.0 | 2.0 | 0.01 | 1.83 | 1.61 | 95 | 1012.2 |
| 20260507112023 | 67 | 0 | 0.0 | 2.0 | 0.01 | 1.83 | 1.61 | 94 | 1011.9 |
| 20260507111543 | 67 | 5 | 0.0 | 2.0 | 0.01 | 1.83 | 1.61 | 94 | 1012.0 |
| 20260507111026 | 67 | 0 | 0.0 | 3.0 | 0.01 | 1.83 | 1.61 | 94 | 1012.0 |
| 20260507110525 | 67 | 0 | 0.0 | 3.0 | 0.01 | 1.83 | 1.61 | 94 | 1011.6 |
| 20260507110044 | 67 | 23 | 0.0 | 3.0 | 0.01 | 1.83 | 1.61 | 94 | 1011.1 |
| 20260507105525 | 67 | 264 | 0.0 | 3.0 | 0.01 | 1.83 | 1.61 | 94 | 1011.9 |
| 20260507105026 | 67 | 0 | 1.0 | 3.0 | 0.01 | 1.83 | 1.61 | 94 | 1012.2 |
| 20260507104539 | 67 | 264 | 0.0 | 3.0 | 0.01 | 1.83 | 1.61 | 94 | 1012.1 |
| 20260507104025 | 67 | 0 | 0.0 | 3.0 | 0.01 | 1.83 | 1.61 | 94 | 1011.9 |
| 20260507103527 | 67 | 0 | 0.0 | 4.0 | 0.00 | 1.82 | 1.60 | 94 | 1012.0 |
| 20260507103041 | 67 | 237 | 1.0 | 5.0 | 0.00 | 1.82 | 1.60 | 94 | 1012.1 |
| 20260507102525 | 67 | 200 | 1.0 | 5.0 | 0.00 | 1.82 | 1.60 | 94 | 1011.9 |
| 20260507102028 | 67 | 217 | 1.0 | 5.0 | 0.00 | 1.82 | 1.60 | 94 | 1011.9 |
| 20260507101546 | 67 | 174 | 1.0 | 5.0 | 0.00 | 1.82 | 1.60 | 94 | 1011.6 |
| 20260507101026 | 67 | 202 | 1.0 | 5.0 | 0.00 | 1.82 | 1.60 | 94 | 1011.4 |
| 20260507100527 | 67 | 212 | 0.0 | 3.0 | 0.00 | 1.82 | 1.60 | 94 | 1011.1 |
| 20260507100042 | 67 | 0 | 0.0 | 4.0 | 0.00 | 1.82 | 1.60 | 94 | 1010.8 |
| 20260507095526 | 67 | 355 | 0.0 | 6.0 | 0.01 | 1.82 | 1.60 | 94 | 1011.3 |
| 20260507095028 | 67 | 0 | 1.0 | 6.0 | 0.01 | 1.82 | 1.60 | 94 | 1011.9 |
| 20260507094544 | 67 | 239 | 1.0 | 5.0 | 0.02 | 1.82 | 1.60 | 94 | 1011.7 |
| 20260507094026 | 67 | 201 | 1.0 | 5.0 | 0.02 | 1.82 | 1.60 | 94 | 1012.0 |
| 20260507093527 | 67 | 202 | 1.0 | 5.0 | 0.02 | 1.82 | 1.60 | 94 | 1012.4 |
| 20260507093045 | 67 | 214 | 1.0 | 3.0 | 0.02 | 1.82 | 1.60 | 94 | 1012.4 |
| 20260507092526 | 67 | 0 | 0.0 | 3.0 | 0.02 | 1.82 | 1.60 | 94 | 1012.4 |
| 20260507092026 | 67 | 260 | 0.0 | 3.0 | 0.02 | 1.82 | 1.60 | 94 | 1013.0 |
| 20260507091541 | 67 | 0 | 1.0 | 3.0 | 0.02 | 1.82 | 1.60 | 94 | 1012.8 |
| 20260507091027 | 67 | 0 | 1.0 | 5.0 | 0.02 | 1.82 | 1.60 | 94 | 1012.9 |
| 20260507090530 | 67 | 0 | 0.0 | 5.0 | 0.02 | 1.82 | 1.60 | 94 | 1013.1 |
| 20260507090038 | 67 | 0 | 1.0 | 5.0 | 0.01 | 1.81 | 1.59 | 94 | 1013.1 |
| 20260507085525 | 67 | 181 | 1.0 | 10.0 | 0.02 | 1.81 | 1.59 | 94 | 1013.0 |
| 20260507085026 | 67 | 238 | 2.0 | 10.0 | 0.03 | 1.81 | 1.59 | 94 | 1012.9 |
| 20260507084539 | 67 | 266 | 1.0 | 8.0 | 0.04 | 1.80 | 1.58 | 94 | 1012.9 |
| 20260507084025 | 67 | 187 | 2.0 | 8.0 | 0.05 | 1.80 | 1.58 | 94 | 1013.0 |
| 20260507083529 | 67 | 221 | 3.0 | 9.0 | 0.06 | 1.80 | 1.58 | 94 | 1013.1 |
| 20260507083039 | 67 | 220 | 2.0 | 9.0 | 0.08 | 1.80 | 1.58 | 94 | 1012.5 |
| 20260507082527 | 67 | 166 | 1.0 | 5.0 | 0.19 | 1.80 | 1.58 | 94 | 1012.5 |
| 20260507082025 | 67 | 217 | 2.0 | 6.0 | 0.31 | 1.80 | 1.58 | 94 | 1012.3 |
| 20260507081539 | 67 | 207 | 2.0 | 6.0 | 0.34 | 1.80 | 1.58 | 94 | 1012.5 |
| 20260507081025 | 67 | 192 | 0.0 | 5.0 | 0.41 | 1.80 | 1.58 | 94 | 1012.4 |
| 20260507080521 | 67 | 193 | 1.0 | 5.0 | 0.51 | 1.80 | 1.58 | 94 | 1012.4 |
| 20260507080044 | 67 | 0 | 1.0 | 4.0 | 0.75 | 1.80 | 1.58 | 94 | 1012.3 |
| 20260507075522 | 67 | 345 | 1.0 | 4.0 | 0.87 | 1.79 | 1.57 | 93 | 1012.1 |
| 20260507075024 | 67 | 224 | 1.0 | 4.0 | 1.07 | 1.78 | 1.56 | 93 | 1012.9 |
| 20260507074540 | 67 | 348 | 1.0 | 4.0 | 1.20 | 1.76 | 1.54 | 93 | 1013.1 |
| 20260507074021 | 67 | 0 | 0.0 | 3.0 | 1.21 | 1.75 | 1.53 | 93 | 1013.1 |
| 20260507073522 | 67 | 0 | 0.0 | 7.0 | 1.22 | 1.74 | 1.52 | 93 | 1013.6 |
| 20260507073039 | 67 | 314 | 1.0 | 7.0 | 1.20 | 1.71 | 1.49 | 93 | 1014.6 |
| 20260507072522 | 67 | 162 | 3.0 | 6.0 | 1.07 | 1.58 | 1.36 | 93 | 1015.9 |
| 20260507072022 | 67 | 287 | 1.0 | 4.0 | 0.99 | 1.49 | 1.27 | 93 | 1015.2 |
| 20260507071539 | 67 | 5 | 1.0 | 3.0 | 0.96 | 1.45 | 1.23 | 93 | 1014.4 |
| 20260507071021 | 67 | 0 | 0.0 | 6.0 | 0.89 | 1.37 | 1.15 | 92 | 1013.8 |
| 20260507070528 | 67 | 0 | 0.0 | 9.0 | 0.79 | 1.27 | 1.04 | 92 | 1013.6 |
| 20260507070038 | 67 | 11 | 4.0 | 12.0 | 0.55 | 1.02 | 0.80 | 92 | 1014.1 |
| 20260507065525 | 67 | 355 | 6.0 | 15.0 | 0.44 | 0.90 | 0.68 | 92 | 1014.1 |
| 20260507065024 | 68 | 346 | 7.0 | 17.0 | 0.21 | 0.67 | 0.45 | 92 | 1014.2 |
| 20260507064538 | 68 | 346 | 9.0 | 17.0 | 0.11 | 0.56 | 0.34 | 92 | 1013.8 |
| 20260507064022 | 68 | 45 | 8.0 | 16.0 | 0.08 | 0.52 | 0.31 | 92 | 1012.9 |
| 20260507063524 | 68 | 11 | 6.0 | 10.0 | 0.07 | 0.51 | 0.29 | 92 | 1013.2 |
| 20260507063044 | 68 | 343 | 3.0 | 8.0 | 0.08 | 0.51 | 0.29 | 92 | 1012.8 |
| 20260507062522 | 68 | 355 | 2.0 | 4.0 | 0.07 | 0.50 | 0.28 | 92 | 1012.7 |
| 20260507062022 | 68 | 355 | 1.0 | 3.0 | 0.08 | 0.50 | 0.28 | 92 | 1012.9 |
| 20260507061541 | 68 | 101 | 0.0 | 3.0 | 0.08 | 0.49 | 0.27 | 92 | 1012.3 |
| 20260507061025 | 68 | 0 | 0.0 | 3.0 | 0.08 | 0.48 | 0.26 | 92 | 1012.7 |
| 20260507060523 | 68 | 0 | 0.0 | 2.0 | 0.10 | 0.48 | 0.26 | 92 | 1013.0 |
| 20260507060050 | 68 | 0 | 0.0 | 3.0 | 0.13 | 0.47 | 0.25 | 92 | 1012.8 |
| 20260507055525 | 68 | 0 | 0.0 | 4.0 | 0.15 | 0.46 | 0.24 | 92 | 1013.1 |
| 20260507055021 | 68 | 206 | 2.0 | 4.0 | 0.14 | 0.45 | 0.23 | 92 | 1013.3 |
| 20260507054546 | 69 | 0 | 0.0 | 2.0 | 0.14 | 0.45 | 0.23 | 92 | 1013.0 |
| 20260507054022 | 69 | 0 | 0.0 | 4.0 | 0.13 | 0.44 | 0.22 | 91 | 1013.1 |
| 20260507053522 | 69 | 0 | 1.0 | 4.0 | 0.14 | 0.44 | 0.22 | 91 | 1013.8 |
| 20260507053041 | 69 | 355 | 1.0 | 3.0 | 0.13 | 0.43 | 0.21 | 91 | 1014.1 |
| 20260507052524 | 69 | 0 | 0.0 | 3.0 | 0.14 | 0.43 | 0.21 | 91 | 1014.1 |
| 20260507052022 | 69 | 12 | 1.0 | 8.0 | 0.15 | 0.42 | 0.20 | 91 | 1014.4 |
| 20260507051538 | 69 | 0 | 1.0 | 10.0 | 0.16 | 0.41 | 0.19 | 91 | 1014.3 |
| 20260507051020 | 69 | 360 | 3.0 | 10.0 | 0.17 | 0.40 | 0.18 | 91 | 1014.9 |
| 20260507050523 | 69 | 329 | 6.0 | 10.0 | 0.15 | 0.38 | 0.16 | 91 | 1015.2 |
| 20260507050043 | 69 | 336 | 1.0 | 7.0 | 0.11 | 0.33 | 0.11 | 91 | 1015.5 |
| 20260507045524 | 69 | 329 | 2.0 | 7.0 | 0.10 | 0.31 | 0.09 | 91 | 1014.9 |
| 20260507045024 | 69 | 302 | 2.0 | 4.0 | 0.10 | 0.31 | 0.09 | 91 | 1015.0 |
| 20260507044553 | 69 | 0 | 0.0 | 3.0 | 0.12 | 0.31 | 0.09 | 91 | 1014.4 |
| 20260507044021 | 69 | 202 | 1.0 | 3.0 | 0.13 | 0.30 | 0.08 | 90 | 1014.2 |
| 20260507043521 | 69 | 195 | 0.0 | 5.0 | 0.15 | 0.30 | 0.08 | 90 | 1014.0 |
| 20260507043038 | 69 | 9 | 0.0 | 7.0 | 0.16 | 0.30 | 0.08 | 90 | 1014.0 |
| 20260507042522 | 70 | 206 | 0.0 | 8.0 | 0.16 | 0.28 | 0.06 | 90 | 1014.6 |
| 20260507042021 | 70 | 170 | 4.0 | 8.0 | 0.17 | 0.27 | 0.05 | 90 | 1015.5 |
| 20260507041538 | 70 | 156 | 2.0 | 5.0 | 0.15 | 0.24 | 0.02 | 90 | 1015.3 |
| 20260507041021 | 70 | 163 | 0.0 | 2.0 | 0.15 | 0.23 | 0.01 | 90 | 1015.2 |
| 20260507040522 | 70 | 0 | 0.0 | 3.0 | 0.16 | 0.23 | 0.01 | 89 | 1015.0 |
| 20260507040039 | 70 | 0 | 1.0 | 3.0 | 0.16 | 0.22 | 0.00 | 89 | 1015.0 |
| 20260507035522 | 70 | 0 | 0.0 | 2.0 | 0.16 | 0.21 | 0.21 | 88 | 1014.5 |
| 20260507035024 | 70 | 180 | 0.0 | 5.0 | 0.16 | 0.20 | 0.20 | 88 | 1015.3 |
| 20260507034541 | 70 | 264 | 0.0 | 5.0 | 0.15 | 0.19 | 0.19 | 88 | 1015.2 |
| 20260507034024 | 70 | 325 | 1.0 | 5.0 | 0.12 | 0.16 | 0.16 | 88 | 1015.4 |
| 20260507033524 | 70 | 0 | 0.0 | 4.0 | 0.12 | 0.15 | 0.15 | 88 | 1015.4 |
| 20260507033043 | 70 | 0 | 1.0 | 3.0 | 0.10 | 0.13 | 0.13 | 87 | 1015.6 |
| 20260507032523 | 70 | 193 | 0.0 | 2.0 | 0.10 | 0.12 | 0.12 | 87 | 1015.4 |
| 20260507032025 | 70 | 0 | 0.0 | 2.0 | 0.08 | 0.10 | 0.10 | 87 | 1015.2 |
| 20260507031539 | 71 | 0 | 0.0 | 3.0 | 0.07 | 0.09 | 0.09 | 86 | 1014.9 |
| 20260507031022 | 71 | 0 | 0.0 | 3.0 | 0.06 | 0.08 | 0.08 | 86 | 1015.1 |
| 20260507030527 | 71 | 0 | 0.0 | 3.0 | 0.05 | 0.07 | 0.07 | 86 | 1015.0 |
| 20260507030038 | 71 | 0 | 0.0 | 3.0 | 0.04 | 0.06 | 0.06 | 85 | 1014.9 |
| 20260507025521 | 71 | 327 | 0.0 | 2.0 | 0.03 | 0.05 | 0.05 | 85 | 1014.4 |
| 20260507025021 | 72 | 337 | 0.0 | 2.0 | 0.02 | 0.04 | 0.04 | 84 | 1014.3 |
| 20260507024542 | 72 | 0 | 0.0 | 2.0 | 0.03 | 0.04 | 0.04 | 85 | 1014.1 |
| 20260507024021 | 72 | 0 | 0.0 | 2.0 | 0.03 | 0.04 | 0.04 | 84 | 1013.8 |
| 20260507023525 | 72 | 0 | 0.0 | 1.0 | 0.02 | 0.03 | 0.03 | 83 | 1013.6 |
| 20260507023038 | 72 | 0 | 0.0 | 1.0 | 0.01 | 0.02 | 0.02 | 84 | 1013.6 |
| 20260507022527 | 72 | 0 | 0.0 | 2.0 | 0.01 | 0.02 | 0.02 | 82 | 1013.3 |
| 20260507022026 | 72 | 0 | 0.0 | 2.0 | 0.01 | 0.02 | 0.02 | 82 | 1013.3 |
| 20260507021543 | 73 | 0 | 0.0 | 2.0 | 0.01 | 0.02 | 0.02 | 81 | 1013.2 |
| 20260507021024 | 73 | 0 | 0.0 | 1.0 | 0.02 | 0.02 | 0.02 | 80 | 1013.4 |
| 20260507020524 | 73 | 0 | 0.0 | 2.0 | 0.02 | 0.02 | 0.02 | 80 | 1013.2 |
| 20260507020047 | 73 | 0 | 0.0 | 2.0 | 0.02 | 0.02 | 0.02 | 79 | 1013.3 |
| 20260507015527 | 73 | 0 | 0.0 | 2.0 | 0.02 | 0.02 | 0.02 | 79 | 1013.4 |
| 20260507015024 | 73 | 0 | 0.0 | 2.0 | 0.02 | 0.02 | 0.02 | 81 | 1013.7 |
| 20260507014538 | 73 | 0 | 0.0 | 3.0 | 0.01 | 0.01 | 0.01 | 81 | 1013.7 |
| 20260507014027 | 73 | 0 | 0.0 | 4.0 | 0.01 | 0.01 | 0.01 | 80 | 1013.3 |
| 20260507013524 | 73 | 0 | 1.0 | 4.0 | 0.01 | 0.01 | 0.01 | 80 | 1013.3 |
| 20260507013045 | 74 | 158 | 1.0 | 3.0 | 0.01 | 0.01 | 0.01 | 78 | 1013.0 |
| 20260507012521 | 75 | 115 | 0.0 | 2.0 | 0.01 | 0.01 | 0.01 | 75 | 1013.1 |
| 20260507012025 | 76 | 0 | 0.0 | 3.0 | 0.01 | 0.01 | 0.01 | 74 | 1013.1 |
| 20260507011541 | 76 | 0 | 0.0 | 3.0 | 0.01 | 0.01 | 0.01 | 72 | 1012.9 |
| 20260507011021 | 76 | 0 | 0.0 | 3.0 | 0.00 | 0.00 | 0.00 | 71 | 1013.2 |
| 20260507010521 | 77 | 0 | 0.0 | 3.0 | 0.00 | 0.00 | 0.00 | 71 | 1013.7 |
| 20260507010043 | 77 | 0 | 0.0 | 3.0 | 0.00 | 0.00 | 0.00 | 70 | 1013.9 |
| 20260507005522 | 78 | 0 | 1.0 | 4.0 | 0.00 | 0.00 | 0.00 | 69 | 1014.0 |
| 20260507005025 | 78 | 0 | 1.0 | 4.0 | 0.00 | 0.00 | 0.00 | 68 | 1013.7 |
| 20260507004536 | 79 | 169 | 0.0 | 5.0 | 0.00 | 0.00 | 0.00 | 66 | 1013.5 |
| 20260507004023 | 79 | 174 | 2.0 | 6.0 | 0.00 | 0.00 | 0.00 | 66 | 1013.4 |
| 20260507003524 | 79 | 166 | 2.0 | 6.0 | 0.00 | 0.00 | 0.00 | 65 | 1013.4 |
| 20260507003042 | 79 | 173 | 2.0 | 8.0 | 0.00 | 0.00 | 0.00 | 65 | 1013.6 |
| 20260507002521 | 79 | 170 | 3.0 | 8.0 | 0.00 | 0.00 | 0.00 | 65 | 1013.6 |
| 20260507002024 | 79 | 164 | 3.0 | 8.0 | 0.00 | 0.00 | 0.00 | 65 | 1013.5 |
| 20260507001542 | 79 | 179 | 1.0 | 4.0 | 0.00 | 0.00 | 0.00 | 66 | 1013.3 |
| 20260507001023 | 79 | 0 | 1.0 | 7.0 | 0.00 | 0.00 | 0.00 | 65 | 1013.3 |
| 20260507000524 | 79 | 167 | 2.0 | 7.0 | 0.00 | 0.00 | 0.00 | 65 | 1013.4 |
| 20260507000040 | 79 | 190 | 2.0 | 6.0 | 0.00 | 0.00 | 0.00 | 65 | 1013.2 |
| 20260506235524 | 79 | 0 | 1.0 | 5.0 | 0.00 | 0.00 | 0.00 | 65 | 1013.2 |
| 20260506235023 | 79 | 181 | 1.0 | 5.0 | 0.00 | 0.00 | 0.00 | 65 | 1013.3 |
| 20260506234541 | 80 | 184 | 0.0 | 6.0 | 0.00 | 0.00 | 0.00 | 65 | 1013.3 |
| 20260506234024 | 80 | 212 | 1.0 | 6.0 | 0.00 | 0.00 | 0.00 | 64 | 1013.2 |
| 20260506233524 | 80 | 162 | 3.0 | 7.0 | 0.00 | 0.00 | 0.00 | 64 | 1013.3 |
| 20260506233038 | 80 | 192 | 3.0 | 8.0 | 0.00 | 0.00 | 0.00 | 64 | 1013.1 |
| 20260506232523 | 80 | 165 | 3.0 | 8.0 | 0.00 | 0.00 | 0.00 | 64 | 1013.1 |
| 20260506232023 | 81 | 154 | 2.0 | 7.0 | 0.00 | 0.00 | 0.00 | 63 | 1013.0 |
| 20260506231540 | 81 | 171 | 3.0 | 7.0 | 0.00 | 0.00 | 0.00 | 63 | 1013.3 |
| 20260506231023 | 81 | 164 | 2.0 | 9.0 | 0.00 | 0.00 | 0.00 | 62 | 1013.7 |
| 20260506230524 | 81 | 184 | 2.0 | 9.0 | 0.00 | 0.00 | 0.00 | 62 | 1013.8 |
| 20260506230043 | 81 | 0 | 2.0 | 6.0 | 0.00 | 0.00 | 0.00 | 61 | 1013.7 |
| 20260506225559 | 81 | 0 | 1.0 | 5.0 | 0.00 | 0.00 | 0.00 | 61 | 1013.8 |
| 20260506225024 | 81 | 207 | 2.0 | 10.0 | 0.00 | 0.00 | 0.00 | 61 | 1013.7 |
| 20260506224554 | 82 | 225 | 2.0 | 10.0 | 0.00 | 0.00 | 0.00 | 61 | 1013.8 |
| 20260506224024 | 82 | 222 | 4.0 | 9.0 | 0.00 | 0.00 | 0.00 | 61 | 1013.5 |
| 20260506223523 | 82 | 204 | 2.0 | 9.0 | 0.00 | 0.00 | 0.00 | 62 | 1013.5 |
| 20260506223038 | 82 | 173 | 3.0 | 8.0 | 0.00 | 0.00 | 0.00 | 61 | 1013.6 |
| 20260506222526 | 82 | 188 | 3.0 | 9.0 | 0.00 | 0.00 | 0.00 | 60 | 1013.5 |
| 20260506222024 | 82 | 178 | 4.0 | 9.0 | 0.00 | 0.00 | 0.00 | 60 | 1013.3 |
| 20260506221539 | 83 | 203 | 3.0 | 7.0 | 0.00 | 0.00 | 0.00 | 60 | 1013.1 |
| 20260506221021 | 83 | 182 | 3.0 | 11.0 | 0.00 | 0.00 | 0.00 | 61 | 1013.2 |
| 20260506220521 | 83 | 188 | 4.0 | 11.0 | 0.00 | 0.00 | 0.00 | 60 | 1013.3 |
| 20260506220039 | 83 | 259 | 3.0 | 9.0 | 0.00 | 0.00 | 0.00 | 60 | 1013.4 |
| 20260506215523 | 83 | 165 | 2.0 | 9.0 | 0.00 | 0.00 | 0.00 | 59 | 1013.2 |
| 20260506215023 | 83 | 204 | 2.0 | 9.0 | 0.00 | 0.00 | 0.00 | 59 | 1013.5 |
| 20260506214542 | 83 | 167 | 3.0 | 10.0 | 0.00 | 0.00 | 0.00 | 59 | 1013.4 |
| 20260506214022 | 84 | 208 | 4.0 | 10.0 | 0.00 | 0.00 | 0.00 | 58 | 1013.4 |
| 20260506213523 | 84 | 167 | 3.0 | 8.0 | 0.00 | 0.00 | 0.00 | 57 | 1013.5 |
| 20260506213044 | 84 | 178 | 3.0 | 9.0 | 0.00 | 0.00 | 0.00 | 57 | 1013.5 |
| 20260506212523 | 85 | 167 | 3.0 | 9.0 | 0.00 | 0.00 | 0.00 | 56 | 1013.6 |
| 20260506212023 | 86 | 234 | 3.0 | 9.0 | 0.00 | 0.00 | 0.00 | 57 | 1013.6 |
| 20260506211539 | 86 | 35 | 3.0 | 10.0 | 0.00 | 0.00 | 0.00 | 54 | 1013.7 |
| 20260506211024 | 86 | 215 | 3.0 | 10.0 | 0.00 | 0.00 | 0.00 | 55 | 1013.9 |
| 20260506210524 | 86 | 182 | 3.0 | 9.0 | 0.00 | 0.00 | 0.00 | 53 | 1013.9 |
| 20260506210040 | 86 | 201 | 3.0 | 10.0 | 0.00 | 0.00 | 0.00 | 55 | 1013.9 |
| 20260506205523 | 86 | 187 | 5.0 | 10.0 | 0.00 | 0.00 | 0.00 | 53 | 1014.1 |
| 20260506205024 | 86 | 198 | 4.0 | 10.0 | 0.00 | 0.00 | 0.00 | 54 | 1014.2 |
| 20260506204538 | 85 | 291 | 3.0 | 15.0 | 0.00 | 0.00 | 0.00 | 57 | 1014.4 |
| 20260506204021 | 85 | 319 | 4.0 | 15.0 | 0.00 | 0.00 | 0.00 | 56 | 1014.3 |
| 20260506203523 | 84 | 165 | 4.0 | 11.0 | 0.00 | 0.00 | 0.00 | 56 | 1014.3 |
| 20260506203040 | 84 | 211 | 4.0 | 13.0 | 0.00 | 0.00 | 0.00 | 56 | 1014.4 |
| 20260506202523 | 85 | 195 | 5.0 | 13.0 | 0.00 | 0.00 | 0.00 | 54 | 1014.5 |
| 20260506202024 | 86 | 223 | 4.0 | 10.0 | 0.00 | 0.00 | 0.00 | 54 | 1014.6 |
| 20260506201538 | 85 | 300 | 3.0 | 10.0 | 0.00 | 0.00 | 0.00 | 54 | 1014.7 |
| 20260506201025 | 85 | 196 | 4.0 | 10.0 | 0.00 | 0.00 | 0.00 | 53 | 1014.8 |
| 20260506200523 | 85 | 199 | 3.0 | 8.0 | 0.00 | 0.00 | 0.00 | 54 | 1015.0 |
| 20260506200037 | 84 | 207 | 4.0 | 13.0 | 0.00 | 0.00 | 0.00 | 52 | 1015.1 |
| 20260506195523 | 85 | 208 | 6.0 | 13.0 | 0.00 | 0.00 | 0.00 | 51 | 1015.2 |
| 20260506195027 | 85 | 194 | 5.0 | 11.0 | 0.00 | 0.00 | 0.00 | 51 | 1015.2 |
| 20260506194543 | 85 | 186 | 3.0 | 11.0 | 0.00 | 0.00 | 0.00 | 50 | 1015.2 |
| 20260506194022 | 86 | 177 | 3.0 | 10.0 | 0.00 | 0.00 | 0.00 | 50 | 1015.3 |
| 20260506193523 | 86 | 0 | 3.0 | 10.0 | 0.00 | 0.00 | 0.00 | 51 | 1015.4 |
| 20260506193039 | 86 | 200 | 3.0 | 14.0 | 0.00 | 0.00 | 0.00 | 49 | 1015.4 |
| 20260506192524 | 87 | 225 | 6.0 | 14.0 | 0.00 | 0.00 | 0.00 | 48 | 1015.3 |
| 20260506192023 | 86 | 325 | 3.0 | 10.0 | 0.00 | 0.00 | 0.00 | 49 | 1015.3 |
| 20260506191539 | 86 | 156 | 3.0 | 10.0 | 0.00 | 0.00 | 0.00 | 48 | 1015.3 |
| 20260506191023 | 86 | 258 | 3.0 | 10.0 | 0.00 | 0.00 | 0.00 | 51 | 1015.3 |
| 20260506190527 | 86 | 230 | 2.0 | 11.0 | 0.00 | 0.00 | 0.00 | 51 | 1015.4 |
| 20260506190039 | 86 | 157 | 4.0 | 14.0 | 0.00 | 0.00 | 0.00 | 51 | 1015.3 |
| 20260506185522 | 86 | 211 | 6.0 | 14.0 | 0.00 | 0.00 | 0.00 | 51 | 1015.4 |
| 20260506185023 | 86 | 182 | 3.0 | 10.0 | 0.00 | 0.00 | 0.00 | 50 | 1015.4 |
| 20260506184537 | 85 | 242 | 4.0 | 11.0 | 0.00 | 0.00 | 0.00 | 49 | 1015.5 |
| 20260506184023 | 85 | 200 | 2.0 | 11.0 | 0.00 | 0.00 | 0.00 | 49 | 1015.6 |
| 20260506183524 | 85 | 148 | 4.0 | 10.0 | 0.00 | 0.00 | 0.00 | 51 | 1015.6 |
| 20260506183039 | 85 | 193 | 4.0 | 12.0 | 0.00 | 0.00 | 0.00 | 47 | 1015.7 |
| 20260506182522 | 85 | 269 | 4.0 | 12.0 | 0.00 | 0.00 | 0.00 | 50 | 1015.8 |
| 20260506182022 | 85 | 169 | 3.0 | 9.0 | 0.00 | 0.00 | 0.00 | 50 | 1015.7 |
| 20260506181544 | 85 | 201 | 2.0 | 11.0 | 0.00 | 0.00 | 0.00 | 49 | 1015.8 |
| 20260506181023 | 84 | 269 | 4.0 | 11.0 | 0.00 | 0.00 | 0.00 | 51 | 1015.8 |
| 20260506180525 | 84 | 220 | 3.0 | 12.0 | 0.00 | 0.00 | 0.00 | 49 | 1015.8 |
| 20260506180043 | 84 | 271 | 3.0 | 12.0 | 0.00 | 0.00 | 0.00 | 46 | 1015.7 |
| 20260506175523 | 84 | 156 | 4.0 | 10.0 | 0.00 | 0.00 | 0.00 | 56 | 1015.8 |
| 20260506175022 | 83 | 299 | 3.0 | 16.0 | 0.00 | 0.00 | 0.00 | 54 | 1015.8 |
| 20260506174536 | 83 | 177 | 6.0 | 16.0 | 0.00 | 0.00 | 0.00 | 56 | 1016.0 |
| 20260506174022 | 84 | 165 | 5.0 | 11.0 | 0.00 | 0.00 | 0.00 | 53 | 1016.1 |
| 20260506173523 | 83 | 252 | 3.0 | 10.0 | 0.00 | 0.00 | 0.00 | 53 | 1016.2 |
| 20260506173041 | 83 | 238 | 3.0 | 10.0 | 0.00 | 0.00 | 0.00 | 53 | 1016.3 |
| 20260506172523 | 83 | 186 | 3.0 | 7.0 | 0.00 | 0.00 | 0.00 | 51 | 1016.2 |
| 20260506172023 | 83 | 355 | 3.0 | 8.0 | 0.00 | 0.00 | 0.00 | 54 | 1016.4 |
| 20260506171553 | 83 | 185 | 3.0 | 11.0 | 0.00 | 0.00 | 0.00 | 56 | 1016.3 |
| 20260506171023 | 82 | 223 | 4.0 | 11.0 | 0.00 | 0.00 | 0.00 | 56 | 1016.3 |
| 20260506170522 | 83 | 216 | 3.0 | 12.0 | 0.00 | 0.00 | 0.00 | 56 | 1016.4 |
| 20260506170043 | 82 | 198 | 4.0 | 12.0 | 0.00 | 0.00 | 0.00 | 55 | 1016.4 |
| 20260506165523 | 82 | 169 | 5.0 | 12.0 | 0.00 | 0.00 | 0.00 | 53 | 1016.6 |
| 20260506165023 | 82 | 247 | 4.0 | 9.0 | 0.00 | 0.00 | 0.00 | 58 | 1016.6 |
| 20260506164539 | 81 | 188 | 3.0 | 8.0 | 0.00 | 0.00 | 0.00 | 55 | 1016.7 |
| 20260506164022 | 80 | 199 | 2.0 | 11.0 | 0.00 | 0.00 | 0.00 | 56 | 1016.8 |
| 20260506163522 | 80 | 202 | 5.0 | 11.0 | 0.00 | 0.00 | 0.00 | 56 | 1016.8 |
| 20260506163043 | 80 | 178 | 3.0 | 11.0 | 0.00 | 0.00 | 0.00 | 56 | 1016.9 |
| 20260506162524 | 80 | 189 | 5.0 | 11.0 | 0.00 | 0.00 | 0.00 | 57 | 1017.0 |
| 20260506162025 | 79 | 194 | 2.0 | 11.0 | 0.00 | 0.00 | 0.00 | 57 | 1017.0 |
| 20260506161538 | 79 | 159 | 5.0 | 11.0 | 0.00 | 0.00 | 0.00 | 58 | 1017.0 |
| 20260506161024 | 78 | 173 | 3.0 | 9.0 | 0.00 | 0.00 | 0.00 | 62 | 1017.0 |
| 20260506160523 | 77 | 236 | 3.0 | 9.0 | 0.00 | 0.00 | 0.00 | 64 | 1017.2 |
| 20260506160039 | 76 | 200 | 4.0 | 9.0 | 0.00 | 0.00 | 0.00 | 64 | 1017.1 |
| 20260506155523 | 76 | 192 | 4.0 | 9.0 | 0.00 | 0.00 | 0.00 | 63 | 1017.2 |
| 20260506155023 | 77 | 223 | 4.0 | 9.0 | 0.00 | 0.00 | 0.00 | 62 | 1017.3 |
| 20260506154601 | 78 | 234 | 4.0 | 10.0 | 0.00 | 0.00 | 0.00 | 60 | 1017.3 |
| 20260506154025 | 78 | 235 | 4.0 | 12.0 | 0.00 | 0.00 | 0.00 | 60 | 1017.3 |
| 20260506153521 | 78 | 201 | 4.0 | 14.0 | 0.00 | 0.00 | 0.00 | 59 | 1017.3 |
| 20260506153041 | 78 | 217 | 6.0 | 14.0 | 0.00 | 0.00 | 0.00 | 60 | 1017.3 |
| 20260506152524 | 77 | 168 | 5.0 | 14.0 | 0.00 | 0.00 | 0.00 | 64 | 1017.2 |
| 20260506152025 | 77 | 202 | 5.0 | 14.0 | 0.00 | 0.00 | 0.00 | 62 | 1017.3 |
| 20260506151540 | 77 | 194 | 4.0 | 9.0 | 0.00 | 0.00 | 0.00 | 63 | 1017.3 |
| 20260506151024 | 76 | 207 | 3.0 | 11.0 | 0.00 | 0.00 | 0.00 | 67 | 1017.2 |
| 20260506150524 | 76 | 234 | 4.0 | 11.0 | 0.00 | 0.00 | 0.00 | 68 | 1017.3 |
| 20260506150039 | 75 | 170 | 4.0 | 9.0 | 0.00 | 0.00 | 0.00 | 69 | 1017.1 |
| 20260506145526 | 74 | 202 | 4.0 | 9.0 | 0.00 | 0.00 | 0.00 | 70 | 1017.1 |
| 20260506145023 | 74 | 195 | 4.0 | 9.0 | 0.00 | 0.00 | 0.00 | 71 | 1017.1 |
| 20260506144546 | 73 | 193 | 3.0 | 9.0 | 0.00 | 0.00 | 0.00 | 72 | 1017.1 |
| 20260506144023 | 73 | 218 | 4.0 | 10.0 | 0.00 | 0.00 | 0.00 | 73 | 1017.0 |
| 20260506143521 | 72 | 223 | 4.0 | 10.0 | 0.00 | 0.00 | 0.00 | 74 | 1017.0 |
| 20260506143038 | 71 | 159 | 2.0 | 5.0 | 0.00 | 0.00 | 0.00 | 79 | 1016.7 |
| 20260506142523 | 71 | 0 | 0.0 | 5.0 | 0.00 | 0.00 | 0.00 | 81 | 1016.7 |
| 20260506142023 | 70 | 213 | 1.0 | 4.0 | 0.00 | 0.00 | 0.00 | 82 | 1016.7 |
| 20260506141539 | 69 | 232 | 1.0 | 8.0 | 0.00 | 0.00 | 0.00 | 82 | 1016.6 |
| 20260506141023 | 69 | 163 | 3.0 | 8.0 | 0.00 | 0.00 | 0.00 | 82 | 1016.6 |
| 20260506140525 | 69 | 196 | 3.0 | 6.0 | 0.00 | 0.00 | 0.00 | 82 | 1016.6 |
| 20260506140054 | 69 | 186 | 2.0 | 5.0 | 0.00 | 0.00 | 0.00 | 84 | 1016.7 |
| 20260506135521 | 68 | 0 | 0.0 | 4.0 | 0.00 | 0.00 | 0.00 | 84 | 1016.6 |
| 20260506135022 | 68 | 205 | 1.0 | 5.0 | 0.00 | 0.00 | 0.00 | 84 | 1016.7 |
| 20260506134539 | 67 | 0 | 1.0 | 5.0 | 0.00 | 0.00 | 0.00 | 84 | 1016.7 |
| 20260506134024 | 67 | 159 | 2.0 | 4.0 | 0.00 | 0.00 | 0.00 | 83 | 1016.7 |
| 20260506133523 | 67 | 184 | 0.0 | 4.0 | 0.00 | 0.00 | 0.00 | 85 | 1016.6 |
| 20260506133045 | 67 | 211 | 0.0 | 4.0 | 0.00 | 0.00 | 0.00 | 85 | 1016.7 |
| 20260506132523 | 66 | 0 | 1.0 | 4.0 | 0.00 | 0.00 | 0.00 | 85 | 1016.6 |
| 20260506132025 | 66 | 172 | 1.0 | 4.0 | 0.00 | 0.00 | 0.00 | 85 | 1016.6 |
| 20260506131538 | 66 | 220 | 1.0 | 5.0 | 0.00 | 0.00 | 0.00 | 85 | 1016.5 |
| 20260506131023 | 65 | 209 | 1.0 | 5.0 | 0.00 | 0.00 | 0.00 | 86 | 1016.4 |